COSMOS 1362

导读

COSMOS 1362是苏联(CIS)于1982年5月6日发射的人造卫星,隶属于苏联“宇宙”(Kosmos/COSMOS)卫星系列。该系列涵盖军事侦察、空间科学实验等多重任务,苏联常以此通用命名掩盖卫星具体用途,保障任务保密性。 宇宙系列是人类历史上规模最大的卫星家族之一,自1962年首星发射以来,贡献了大量航天数据,也推动了苏联航天技术与国防空间能力的发展,COSMOS 1362是该系列冷战时期航天活动的典型组成部分。

Basic Information
目录编号:
13165
目录名称:
COSMOS 1362
国际标识:
1982-040F
轨道中心:
EARTH
卫星名称:
COSMOS 1362
卫星全名:
--
卫星状态:
在轨 (已飞行16111 天)
发射日期:
1982-05-06 UTC
国别 :
俄罗斯(独联体) (CIS)
星等 :
--
Orbit Information
数据来源 国际轨道数据 AOE轨道数据
星历时间 2026-06-15T07:44:13+0800
5小时前
查看轨道信息
2026-06-15T02:00:00+0800
11小时前
查看轨道信息
半长轴 7858.732km 7858.73km
偏心率 0.0018361 0.0018397
轨道倾角 74.011° 74.012°
近地点辐角 309.199° 309.649°
升交点赤经 109.576° 109.891°
平近点角 120.264° 127.797°
近地点 1466.165km 1466.135km
远地点 1495.025km 1495.051km
周期 115.555分钟 115.555分钟
每日圈数 12.461607 12.461612
Detailed Information
使用方式:
暂无
2D Orbit Map
3D Orbit Map
Orbit Altitude Analysis Chart
Orbit Inclination Analysis Chart
Orbit Comprehensive Analysis Chart
View Comprehensive Chart